AirNav   Everest Fuels
 
 626 users online  

1MA9 Morton Hospital Heliport
Taunton, Massachusetts, USA

GOING TO TAUNTON?


FAA INFORMATION EFFECTIVE 27 FEBRUARY 2020

Location

FAA Identifier: 1MA9
Lat/Long: 41-54-20.5700N 071-05-41.9800W
41-54.342833N 071-05.699667W
41.9057139,-71.0949944
(estimated)
Elevation: 50 ft. / 15 m (estimated)
Variation: 16W (1995)
Time zone: UTC -5 (UTC -4 during Daylight Saving Time)
Zip code: 02780

Heliport Operations

Heliport use: Private use, MEDICAL USE.
Activation date: 03/1998
Control tower: no
ARTCC: BOSTON CENTER
FSS: BRIDGEPORT FLIGHT SERVICE STATION
Attendance: UNATNDD
Segmented circle: no

Heliport Communications

WX ASOS at TAN (4 nm SE): 132.675 (508-824-5005)
WX ASOS at EWB (15 nm SE): 126.85 (508-992-0195)
WX ASOS at PYM (16 nm E): 135.625 (508-746-8003)
WX ASOS at OWD (17 nm N): 119.95 (781-762-4314)
WX AWOS-3PT at SFZ (18 nm W): 120.775 (401-334-0324)
WX ASOS at PVD (19 nm SW): 124.2 (401-734-2818)

Nearby radio navigation aids

VOR radial/distance  VOR name  Freq  Var
PVDr068/18.5PROVIDENCE VOR/DME115.6014W
BOSr206/27.5BOSTON VOR/DME112.7016W
PUTr109/33.6PUTNAM VOR/DME117.4014W
MVYr340/37.4MARTHAS VINEYARD VOR/DME114.5015W

 
NDB name  Hdg/Dist  Freq  Var  ID
TAUNTON313/4.022716WTAN - .- -.
STOGE188/12.939715WOW --- .--
MARSHFIELD254/22.036816WIMR .. -- .-.

Heliport Services

Runway Information

Helipad H1

Dimensions: 40 x 40 ft. / 12 x 12 m
Surface: asphalt
Latitude: 41-54.342833N
Longitude: 071-05.699667W
Elevation: 50.0 ft.
Traffic pattern: leftleft

Heliport Ownership and Management from official FAA records

Ownership: Privately-owned
Owner: MORTON HOSPITAL
88 WASHINGTON STREET
TAUNTON, MA 02780
Phone 508-828-7000
Manager: TODD MARTIN
88 WASHINGTON STREET
TAUNTON, MA 02780
Phone (508) 828-7137
ADDITIONAL CONTACT: JOSIAH MOYER 508-828-7451 JOSIAH.MOYER@STEWARD.ORG

Additional Remarks

A52-H1 30 FT BLDG 100 FT E OF HELIPAD.
ROOFTOP.
FOR CD CTC PROVIDENCE APCH AT 401-738-8945, WHEN APCH CLSD CTC BOSTON ARTCC AT 603-879-6859.

Instrument Procedures

There are no published instrument procedures at 1MA9.

Some nearby airports with instrument procedures:

KTAN - Taunton Municipal Airport - King Field (4 nm SE)
1B9 - Mansfield Municipal Airport (7 nm NW)
KEWB - New Bedford Regional Airport (15 nm SE)
KPYM - Plymouth Municipal Airport (16 nm E)
KOWD - Norwood Memorial Airport (17 nm N)
KSFZ - North Central State Airport (18 nm W)
KPVD - Theodore Francis Green State Airport (19 nm SW)
 
Loc | Ops | Rwys | IFR | FBO | Links
Com | Nav | Svcs | Stats | Notes
Area around 1MA9 (Morton Hospital Heliport)
 
Road maps at: MapQuest Bing Google
 
Aerial photo
No photo
 
Sectional chart

 
Airport distance calculator
Flying to Morton Hospital Heliport? Find the distance to fly.

From to 1MA9

Sunrise and sunset
Times for 28-Feb-2020
 Local
(UTC-5)
 Zulu
(UTC)
Morning civil twilight05:5410:54
Sunrise06:2211:22
Sunset17:3222:32
Evening civil twilight18:0023:00

Current date and time
Zulu (UTC)  28-Feb-2020 07:48:28
Local (UTC-5)  28-Feb-2020 02:48:28
 
METAR
KTAN 
4nm E 
280652Z AUTO 26009G24KT 220V280 10SM BKN065 M01/M13 A2971 RMK AO2 SLP061 T10111133
KEWB 
15nm SE 
280653Z AUTO 26015G23KT 10SM BKN060 M01/M13 A2972 RMK AO2 PK WND 25032/0635 SLP063 T10111133
KPYM 
16nm E 
280652Z AUTO 25013KT 10SM BKN065 M01/M12 A2970 RMK AO2 PK WND 25028/0601 SLP058 T10111122
KOWD 
17nm N 
280653Z AUTO 24012KT 10SM OVC070 01/M13 A2969 RMK AO2 SLP053 T00061133
KSFZ 
18nm W 
280656Z AUTO 26011G20KT 10SM FEW060 M03/M12 A2969 RMK AO2 PK WND 26026/0636 SLP003 T10281122 FZRANO
KMQE 
19nm N 
280651Z AUTO 25012G25KT M03/M13 A2964 RMK AO1 PK WND 26027/0606 SLP052 T10281133
KPVD 
19nm SW 
280651Z 25014G22KT 10SM CLR M01/M13 A2973 RMK AO2 PK WND 24033/0556 SLP067 T10111133
TAF
KPVD 
19nm SW 
280524Z 2806/2906 26015G30KT P6SM SCT050 FM290000 25008KT P6SM SCT060
NOTAMs
Click for the latest NOTAMs
NOTAMs are issued by the DoD/FAA and will open in a separate window not controlled by AirNav.

 

 
 

Would you like to see your business listed on this page?

 If your business provides an interesting product or service to pilots, flight crews, aircraft, or users of the Morton Hospital Heliport, you should consider listing it here.  To start the listing process, click on the button below
 
Add a business
 

Other Pages about Morton Hospital Heliport

Update a link
 
Copyright © AirNav, LLC. All rights reserved. Privacy Policy  Contact